This is the latest recevied weather packets stored in our database for station/object N4TLC. If no packets are shown the sender has not sent any weather packets the latest 10 day(s).
| Time | Temp. | Humidity | Pressure | Rain* | Wind** | Luminosity | Snow |
|---|---|---|---|---|---|---|---|
| 1776991395 | 22.22° C | 40% | 1015.5 hPa | 0 mm | - | 0 W/m² | - |
| 1776991090 | 22.78° C | 39% | 1015.4 hPa | 0 mm | - | 0 W/m² | - |
| 1776990787 | 22.78° C | 38% | 1015.3 hPa | 0 mm | - | 0 W/m² | - |
| 1776990485 | 23.33° C | 36% | 1015.4 hPa | 0 mm | - | 0 W/m² | - |
| 1776990181 | 23.33° C | 35% | 1015.3 hPa | 0 mm | - | 0 W/m² | - |
| 1776989876 | 23.89° C | 35% | 1015.3 hPa | 0 mm | - | 0 W/m² | - |
| 1776989571 | 23.89° C | 35% | 1015.4 hPa | 0 mm | - | 1 W/m² | - |
| 1776989269 | 24.44° C | 35% | 1015.3 hPa | 0 mm | - | 1 W/m² | - |
| 1776988964 | 25° C | 33% | 1015.4 hPa | 0 mm | - | 3 W/m² | - |
| 1776988662 | 25° C | 33% | 1015.4 hPa | 0 mm | - | 4 W/m² | - |
| 1776988359 | 25.56° C | 31% | 1015.3 hPa | 0 mm | - | 7 W/m² | - |
| 1776988055 | 25.56° C | 31% | 1015.3 hPa | 0 mm | - | 10 W/m² | - |
| 1776987751 | 26.11° C | 30% | 1015.4 hPa | 0 mm | - | 14 W/m² | - |
| 1776987448 | 26.67° C | 29% | 1015.3 hPa | 0 mm | - | 19 W/m² | - |
| 1776987145 | 27.22° C | 29% | 1015.3 hPa | 0 mm | - | 24 W/m² | - |
| 1776986840 | 27.78° C | 28% | 1015.3 hPa | 0 mm | - | 32 W/m² | - |
| 1776986537 | 27.78° C | 27% | 1015.2 hPa | 0 mm | - | 40 W/m² | - |
| 1776986233 | 27.78° C | 26% | 1015.3 hPa | 0 mm | - | 46 W/m² | - |
| 1776985931 | 28.33° C | 26% | 1015.2 hPa | 0 mm | - | 54 W/m² | - |
| 1776985628 | 28.33° C | 26% | 1015.2 hPa | 0 mm | - | 64 W/m² | - |
| 1776985323 | 28.89° C | 25% | 1015.2 hPa | 0 mm | - | 75 W/m² | - |
| 1776985019 | 28.89° C | 25% | 1015.2 hPa | 0 mm | - | 88 W/m² | - |
| 1776984715 | 28.89° C | 25% | 1015.3 hPa | 0 mm | - | 103 W/m² | - |
| 1776984411 | 28.33° C | 25% | 1015.4 hPa | 0 mm | - | 117 W/m² | - |
| 1776984107 | 28.89° C | 25% | 1015.3 hPa | 0 mm | - | 131 W/m² | - |
* Rain latest hour (hover to see other rain measurements)
** Current wind speed in m/s (hover to see current wind gust speed)